Benson, MN

12:36 AM CDT on May 27, 2017 (GMT -0500)
Benson Municipal

Weather History for KBBB - July, 2013

Change the Weather History Date:

Friday, July 26, 2013

  Actual Average Record
Temperature  
Mean Temperature 61 °F -  
Max Temperature 69 °F 82 °F 99 °F (1955)
Min Temperature 53 °F 61 °F 44 °F (2008)
Degree Days  
Heating Degree Days 4    
Growing Degree Days 11 (Base 50)    
Moisture  
Dew Point 51 °F    
Average Humidity 71    
Maximum Humidity 94    
Minimum Humidity 46    
Precipitation  
Precipitation 0.00 in - - ()
Sea Level Pressure  
Sea Level Pressure 30.07 in    
Wind  
Wind Speed 12 mph (North)    
Max Wind Speed 23 mph    
Max Gust Speed 30 mph    
Visibility 10 miles    
Events      
Averages and records for this station are not official NWS values.
T = Trace of Precipitation, MM = Missing Value Source: NWS Daily Summary

Daily Weather History Graph

Daily Weather History Graph

Search for Another Location

Airport or City:

Trip Planner

Search our weather history database for the weather conditions in past years. The results will help you decide how hot, cold, wet, or windy it might be!

Date:

Astronomy

Jul. 26, 2013 Rise Set
Actual Time 6:00 AM CDT 8:57 PM CDT
Civil Twilight 5:25 AM CDT 9:31 PM CDT
Nautical Twilight 4:41 AM CDT 10:15 PM CDT
Astronomical Twilight 3:48 AM CDT 11:08 PM CDT
Moon 10:53 PM CDT (7/26) 10:54 AM CDT (7/26)
Length of Visible Light 16h 05m
Length of Day
14h 56m
Waning Gibbous, 80% of the Moon is Illuminated
Jul 26
Waning Gibbous
Jul 29
Last Quarter
Aug 6
New
Aug 14
First Quarter
Aug 20
Full

Hourly Weather History & Observations

Time (CDT) Temp. Dew Point Humidity Pressure Visibility Wind Dir Wind Speed Gust Speed Precip Events Conditions
12:12 AM 60.8 °F 55.4 °F 82% 29.97 in 10.0 mi NNW 8.1 mph - N/A   Scattered Clouds
12:32 AM 60.8 °F 53.6 °F 77% 29.98 in 10.0 mi North 9.2 mph - N/A   Scattered Clouds
12:53 AM 60.8 °F 53.6 °F 77% 29.98 in 10.0 mi North 10.4 mph - N/A   Clear
1:12 AM 59.0 °F 53.6 °F 82% 29.98 in 10.0 mi NNW 6.9 mph - N/A   Clear
1:33 AM 57.2 °F 53.6 °F 88% 29.99 in 10.0 mi NNW 8.1 mph - N/A   Clear
1:53 AM 57.2 °F 51.8 °F 82% 29.99 in 10.0 mi NNW 6.9 mph - N/A   Clear
2:12 AM 57.2 °F 51.8 °F 82% 29.99 in 10.0 mi NNW 10.4 mph - N/A   Clear
2:33 AM 57.2 °F 51.8 °F 82% 29.98 in 10.0 mi NNW 10.4 mph - N/A   Clear
2:53 AM 55.4 °F 51.8 °F 88% 29.99 in 10.0 mi NNW 8.1 mph - N/A   Clear
3:12 AM 55.4 °F 51.8 °F 88% 29.99 in 10.0 mi NNW 9.2 mph - N/A   Clear
3:33 AM 55.4 °F 51.8 °F 88% 29.99 in 10.0 mi NNW 8.1 mph - N/A   Clear
3:53 AM 55.4 °F 51.8 °F 88% 29.99 in 10.0 mi NNW 9.2 mph - N/A   Clear
4:12 AM 55.4 °F 51.8 °F 88% 29.99 in 10.0 mi NNW 12.7 mph - N/A   Clear
4:33 AM 55.4 °F 53.6 °F 94% 29.99 in 10.0 mi NNW 11.5 mph 19.6 mph N/A   Clear
4:53 AM 55.4 °F 51.8 °F 88% 29.99 in 10.0 mi North 11.5 mph - N/A   Clear
5:12 AM 55.4 °F 51.8 °F 88% 30.00 in 10.0 mi NNW 13.8 mph - N/A   Clear
5:33 AM 53.6 °F 51.8 °F 94% 30.00 in 10.0 mi NNW 12.7 mph - N/A   Clear
5:52 AM 53.6 °F 51.8 °F 94% 30.00 in 10.0 mi NNW 11.5 mph - N/A   Clear
6:12 AM 53.6 °F 51.8 °F 94% 30.00 in 10.0 mi NNW 12.7 mph - N/A   Clear
6:33 AM 53.6 °F 51.8 °F 94% 30.01 in 10.0 mi NNW 11.5 mph - N/A   Clear
6:52 AM 55.4 °F 51.8 °F 88% 30.01 in 10.0 mi NNW 12.7 mph - N/A   Mostly Cloudy
7:12 AM 55.4 °F 51.8 °F 88% 30.02 in 10.0 mi NNW 13.8 mph 18.4 mph N/A   Overcast
7:33 AM 57.2 °F 53.6 °F 88% 30.02 in 10.0 mi NNW 13.8 mph - N/A   Mostly Cloudy
7:52 AM 57.2 °F 53.6 °F 88% 30.03 in 7.0 mi NNW 18.4 mph 23.0 mph N/A   Overcast
8:13 AM 57.2 °F 53.6 °F 88% 30.03 in 10.0 mi NNW 17.3 mph 26.5 mph N/A   Overcast
8:33 AM 57.2 °F 53.6 °F 88% 30.03 in 7.0 mi North 16.1 mph 29.9 mph N/A   Overcast
8:52 AM 60.8 °F 55.4 °F 82% 30.03 in 10.0 mi North 20.7 mph 25.3 mph N/A   Overcast
9:13 AM 60.8 °F 53.6 °F 77% 30.04 in 10.0 mi North 13.8 mph 26.5 mph N/A   Overcast
9:32 AM 60.8 °F 55.4 °F 82% 30.05 in 10.0 mi North 20.7 mph 28.8 mph N/A   Overcast
9:52 AM 62.6 °F 55.4 °F 77% 30.05 in 10.0 mi North 19.6 mph 25.3 mph N/A   Overcast
10:13 AM 64.4 °F 55.4 °F 73% 30.05 in 10.0 mi North 23.0 mph 28.8 mph N/A   Mostly Cloudy
10:32 AM 64.4 °F 53.6 °F 68% 30.06 in 10.0 mi North 16.1 mph 26.5 mph N/A   Mostly Cloudy
10:52 AM 62.6 °F 53.6 °F 72% 30.07 in 10.0 mi North 18.4 mph 28.8 mph N/A   Overcast
11:13 AM 64.4 °F 53.6 °F 68% 30.08 in 10.0 mi North 17.3 mph 27.6 mph N/A   Mostly Cloudy
11:32 AM 62.6 °F 53.6 °F 72% 30.09 in 10.0 mi North 17.3 mph 29.9 mph N/A   Mostly Cloudy
11:53 AM 62.6 °F 53.6 °F 72% 30.10 in 10.0 mi North 20.7 mph 26.5 mph N/A   Overcast
12:13 PM 62.6 °F 53.6 °F 72% 30.11 in 10.0 mi North 18.4 mph 29.9 mph N/A   Overcast
12:32 PM 62.6 °F 51.8 °F 68% 30.11 in 10.0 mi North 13.8 mph 28.8 mph N/A   Overcast
12:53 PM 62.6 °F 51.8 °F 68% 30.11 in 10.0 mi North 16.1 mph 27.6 mph N/A   Overcast
1:12 PM 66.2 °F 53.6 °F 64% 30.11 in 10.0 mi North 18.4 mph 27.6 mph N/A   Mostly Cloudy
1:32 PM 66.2 °F 53.6 °F 64% 30.10 in 10.0 mi North 17.3 mph 24.2 mph N/A   Overcast
1:53 PM 66.2 °F 51.8 °F 60% 30.10 in 10.0 mi NNE 17.3 mph 24.2 mph N/A   Overcast
2:12 PM 69.8 °F 51.8 °F 53% 30.10 in 10.0 mi North 17.3 mph 29.9 mph N/A   Mostly Cloudy
2:32 PM 66.2 °F 51.8 °F 60% 30.10 in 10.0 mi North 18.4 mph 29.9 mph N/A   Overcast
2:53 PM 68.0 °F 51.8 °F 56% 30.11 in 10.0 mi North 12.7 mph 21.9 mph N/A   Overcast
3:12 PM 66.2 °F 48.2 °F 52% 30.11 in 10.0 mi North 16.1 mph 24.2 mph N/A   Mostly Cloudy
3:33 PM 66.2 °F 48.2 °F 52% 30.11 in 10.0 mi NNE 13.8 mph 26.5 mph N/A   Overcast
3:53 PM 66.2 °F 48.2 °F 52% 30.12 in 10.0 mi NNE 15.0 mph 20.7 mph N/A   Overcast
4:12 PM 69.8 °F 50.0 °F 49% 30.11 in 10.0 mi NNE 19.6 mph 24.2 mph N/A   Mostly Cloudy
4:33 PM 69.8 °F 48.2 °F 46% 30.10 in 10.0 mi North 18.4 mph 21.9 mph N/A   Scattered Clouds
4:52 PM 69.8 °F 50.0 °F 49% 30.10 in 10.0 mi NE 19.6 mph - N/A   Scattered Clouds
5:12 PM 69.8 °F 50.0 °F 49% 30.10 in 10.0 mi North 16.1 mph 23.0 mph N/A   Scattered Clouds
5:33 PM 68.0 °F 48.2 °F 49% 30.11 in 10.0 mi NNE 12.7 mph 21.9 mph N/A   Scattered Clouds
5:52 PM 69.8 °F 48.2 °F 46% 30.11 in 10.0 mi NNE 11.5 mph 20.7 mph N/A   Scattered Clouds
6:12 PM 68.0 °F 48.2 °F 49% 30.11 in 10.0 mi NNE 12.7 mph 24.2 mph N/A   Mostly Cloudy
6:33 PM 66.2 °F 46.4 °F 49% 30.10 in 10.0 mi North 13.8 mph 20.7 mph N/A   Scattered Clouds
6:52 PM 66.2 °F 46.4 °F 49% 30.11 in 10.0 mi North 16.1 mph - N/A   Scattered Clouds
7:13 PM 66.2 °F 48.2 °F 52% 30.11 in 10.0 mi NNE 13.8 mph 18.4 mph N/A   Clear
7:33 PM 64.4 °F 48.2 °F 56% 30.11 in 10.0 mi NNE 10.4 mph - N/A   Clear
7:52 PM 64.4 °F 48.2 °F 56% 30.11 in 10.0 mi North 8.1 mph - N/A   Scattered Clouds
8:13 PM 64.4 °F 48.2 °F 56% 30.11 in 10.0 mi NNE 11.5 mph - N/A   Scattered Clouds
8:33 PM 62.6 °F 48.2 °F 59% 30.12 in 10.0 mi NE 6.9 mph - N/A   Scattered Clouds
8:52 PM 60.8 °F 48.2 °F 63% 30.12 in 10.0 mi NE 4.6 mph - N/A   Mostly Cloudy
9:13 PM 60.8 °F 48.2 °F 63% 30.12 in 10.0 mi NE 5.8 mph - N/A   Mostly Cloudy
9:32 PM 60.8 °F 48.2 °F 63% 30.13 in 10.0 mi NE 5.8 mph - N/A   Mostly Cloudy
9:52 PM 59.0 °F 48.2 °F 67% 30.13 in 10.0 mi ENE 3.5 mph - N/A   Mostly Cloudy
10:13 PM 57.2 °F 48.2 °F 72% 30.14 in 10.0 mi ENE 3.5 mph - N/A   Mostly Cloudy
10:33 PM 57.2 °F 48.2 °F 72% 30.14 in 10.0 mi ENE 4.6 mph - N/A   Overcast
10:52 PM 57.2 °F 48.2 °F 72% 30.14 in 10.0 mi East 4.6 mph - N/A   Overcast
11:13 PM 57.2 °F 48.2 °F 72% 30.14 in 10.0 mi East 4.6 mph - N/A   Overcast
11:32 PM 55.4 °F 48.2 °F 77% 30.14 in 10.0 mi East 3.5 mph - N/A   Overcast
11:52 PM 55.4 °F 48.2 °F 77% 30.15 in 10.0 mi East 3.5 mph - N/A   Overcast